Zurück zum Katalog

DELTA 1 DEB

AktivSSO
NORAD 21372·DEBRIS·🇺🇸 United States

Gestartet Jun 12, 1975 von Vandenberg Space Force Base

Loading…

Nächste Überflüge (nächste 24 Stunden)

TLE

AktuellSource: Space-Track

Epoche: Sep 14, 2026, 05:10 UTC

1 21372U 75052CS  26257.21557020  .00000041  00000-0  17202-3 0  9998
2 21372 100.1978 162.4299 0061937  85.2363  68.1113 13.33616971718027

Verfolge DELTA 1 DEB in Echtzeit mit AllMySat

Download on the App Store